START_TIME,STEP,MOV.,AL01,t_acc.,AL02,t_acc.,E37,t_acc.,H21,t_acc.
1979-07-13 00:00:34.660 ,0,0,4.,24.0,0.,24.0,0.,24.0,0.,24.0
1979-07-13 00:00:58.660 ,1,1,2.,24.0,1.,24.0,0.,24.0,0.,24.0
1979-07-13 00:01:22.660 ,1,0,4.,24.0,2.,24.0,0.,24.0,0.,24.0
1979-07-13 00:01:46.660 ,2,1,3.,24.0,0.,24.0,0.,24.0,0.,24.0
1979-07-13 00:02:10.660 ,2,0,5.,24.0,1.,24.0,0.,24.0,0.,24.0
1979-07-13 00:02:34.660 ,3,1,2.,24.0,0.,24.0,0.,24.0,0.,24.0
1979-07-13 00:02:58.660 ,3,0,3.,24.0,0.,24.0,0.,24.0,0.,24.0
1979-07-13 00:03:22.660 ,4,1,6.,24.0,0.,24.0,0.,24.0,0.,24.0
1979-07-13 00:03:46.660 ,4,0,3.,24.0,1.,24.0,0.,24.0,0.,24.0
1979-07-13 00:04:10.660 ,5,1,1.,24.0,0.,24.0,0.,24.0,0.,24.0
1979-07-13 00:04:34.660 ,5,0,4.,24.0,1.,24.0,0.,24.0,0.,24.0
1979-07-13 00:04:58.660 ,6,1,5.,24.0,2.,24.0,0.,24.0,0.,24.0
1979-07-13 00:05:22.660 ,6,0,2.,24.0,1.,24.0,0.,24.0,0.,24.0
1979-07-13 00:05:46.660 ,7,1,9.,24.0,1.,24.0,0.,24.0,0.,24.0
1979-07-13 00:06:10.660 ,7,0,22.,24.0,0.,24.0,0.,24.0,0.,24.0
1979-07-13 00:06:34.660 ,7,1,35.,24.0,0.,24.0,0.,24.0,0.,24.0
1979-07-13 00:06:58.660 ,7,0,30.,24.0,0.,24.0,0.,24.0,0.,24.0
1979-07-13 00:07:22.660 ,6,1,25.,24.0,0.,24.0,0.,24.0,0.,24.0
1979-07-13 00:07:46.660 ,6,0,5.,24.0,0.,24.0,0.,24.0,0.,24.0
1979-07-13 00:08:10.660 ,5,1,4.,24.0,1.,24.0,0.,24.0,0.,24.0
1979-07-13 00:08:34.660 ,5,0,3.,24.0,0.,24.0,0.,24.0,0.,24.0
1979-07-13 00:08:58.660 ,4,1,7.,24.0,0.,24.0,0.,24.0,0.,24.0
1979-07-13 00:09:22.660 ,4,0,5.,24.0,0.,24.0,0.,24.0,0.,24.0
1979-07-13 00:09:46.660 ,3,1,5.,24.0,1.,24.0,0.,24.0,0.,24.0
1979-07-13 00:10:10.660 ,3,0,1.,24.0,0.,24.0,0.,24.0,0.,24.0
1979-07-13 00:10:34.660 ,2,1,7.,24.0,2.,24.0,0.,24.0,0.,24.0
1979-07-13 00:10:58.660 ,2,0,3.,24.0,1.,24.0,0.,24.0,0.,24.0
1979-07-13 00:11:22.660 ,1,1,0.,24.0,1.,24.0,0.,24.0,0.,24.0
1979-07-13 00:11:46.660 ,1,0,3.,24.0,1.,24.0,0.,24.0,0.,24.0
1979-07-13 00:12:10.660 ,0,1,1.,24.0,0.,24.0,0.,24.0,0.,24.0
1979-07-13 00:12:34.660 ,0,0,3.,24.0,0.,24.0,0.,24.0,0.,24.0
1979-07-13 00:12:58.660 ,0,1,2.,24.0,0.,24.0,0.,24.0,0.,24.0
1979-07-13 00:13:22.660 ,0,0,3.,24.0,1.,24.0,0.,24.0,0.,24.0
1979-07-13 00:13:46.660 ,1,1,0.,24.0,0.,24.0,0.,24.0,0.,24.0
1979-07-13 00:14:10.660 ,1,0,2.,24.0,1.,24.0,0.,24.0,0.,24.0
1979-07-13 00:14:34.660 ,2,1,0.,24.0,0.,24.0,0.,24.0,0.,24.0
1979-07-13 00:14:58.660 ,2,0,2.,24.0,1.,24.0,0.,24.0,0.,24.0
1979-07-13 00:15:22.660 ,3,1,3.,24.0,0.,24.0,0.,24.0,0.,24.0
1979-07-13 00:15:46.660 ,3,0,4.,24.0,0.,24.0,0.,24.0,0.,24.0
1979-07-13 00:16:10.660 ,4,1,1.,24.0,0.,24.0,0.,24.0,0.,24.0
1979-07-13 00:16:34.660 ,4,0,5.,24.0,0.,24.0,0.,24.0,0.,24.0
1979-07-13 00:16:58.660 ,5,1,2.,24.0,0.,24.0,0.,24.0,0.,24.0
1979-07-13 00:17:22.660 ,5,0,3.,24.0,1.,24.0,0.,24.0,0.,24.0
1979-07-13 00:17:46.660 ,6,1,6.,24.0,1.,24.0,0.,24.0,0.,24.0
1979-07-13 00:18:10.660 ,6,0,4.,24.0,0.,24.0,0.,24.0,0.,24.0
1979-07-13 00:18:34.660 ,7,0,9.,24.0,1.,24.0,0.,24.0,0.,24.0
1979-07-13 00:18:58.660 ,7,0,32.,24.0,0.,24.0,0.,24.0,0.,24.0
1979-07-13 00:19:22.660 ,5,1,19.,24.0,1.,24.0,0.,24.0,0.,24.0
1979-07-13 00:19:46.660 ,1,1,1.,24.0,1.,24.0,0.,24.0,0.,24.0
1979-07-13 00:20:10.660 ,2,1,2.,24.0,0.,24.0,0.,24.0,0.,24.0
1979-07-13 00:20:34.660 ,6,1,3.,24.0,0.,24.0,0.,24.0,0.,24.0
1979-07-13 00:20:58.660 ,5,1,13.,24.0,0.,24.0,0.,24.0,0.,24.0
1979-07-13 00:21:22.660 ,1,1,6.,24.0,2.,24.0,0.,24.0,0.,24.0
1979-07-13 00:21:46.660 ,2,1,4.,24.0,0.,24.0,0.,24.0,0.,24.0
1979-07-13 00:22:10.660 ,6,1,3.,24.0,1.,24.0,0.,24.0,0.,24.0
1979-07-13 00:22:34.660 ,5,1,23.,24.0,0.,24.0,0.,24.0,0.,24.0
1979-07-13 00:22:58.660 ,1,1,2.,24.0,2.,24.0,0.,24.0,0.,24.0
1979-07-13 00:23:22.660 ,2,1,2.,24.0,1.,24.0,0.,24.0,0.,24.0
1979-07-13 00:23:46.660 ,6,1,2.,24.0,2.,24.0,0.,24.0,0.,24.0
1979-07-13 00:24:10.660 ,5,1,24.,24.0,1.,24.0,0.,24.0,0.,24.0
1979-07-13 00:24:34.660 ,1,1,3.,24.0,1.,24.0,0.,24.0,0.,24.0
1979-07-13 00:24:58.660 ,2,1,1.,24.0,0.,24.0,0.,24.0,0.,24.0
1979-07-13 00:25:22.660 ,6,1,5.,24.0,0.,24.0,0.,24.0,0.,24.0
1979-07-13 00:25:46.660 ,5,1,16.,24.0,0.,24.0,0.,24.0,0.,24.0
1979-07-13 00:26:10.660 ,1,1,2.,24.0,0.,24.0,0.,24.0,0.,24.0
1979-07-13 00:26:34.660 ,2,1,4.,24.0,0.,24.0,0.,24.0,0.,24.0
1979-07-13 00:26:58.660 ,6,1,4.,24.0,2.,24.0,0.,24.0,0.,24.0
1979-07-13 00:27:22.660 ,5,1,25.,24.0,0.,24.0,0.,24.0,0.,24.0
1979-07-13 00:27:46.660 ,1,1,2.,24.0,0.,24.0,0.,24.0,0.,24.0
1979-07-13 00:28:10.660 ,2,1,5.,24.0,1.,24.0,0.,24.0,0.,24.0
1979-07-13 00:28:34.660 ,6,1,2.,24.0,0.,24.0,0.,24.0,0.,24.0
1979-07-13 00:28:58.660 ,5,1,15.,24.0,0.,24.0,0.,24.0,0.,24.0
1979-07-13 00:29:22.660 ,1,1,3.,24.0,0.,24.0,0.,24.0,0.,24.0
1979-07-13 00:29:46.660 ,0,0,0.,24.0,0.,24.0,0.,24.0,0.,24.0
1979-07-13 00:30:10.660 ,0,0,0.,24.0,1.,24.0,0.,24.0,0.,24.0
1979-07-13 00:30:34.660 ,5,1,14.,24.0,0.,24.0,0.,24.0,0.,24.0
1979-07-13 00:30:58.660 ,5,0,4.,24.0,0.,24.0,0.,24.0,0.,24.0
1979-07-13 00:31:22.660 ,4,1,5.,24.0,0.,24.0,0.,24.0,0.,24.0
1979-07-13 00:31:46.660 ,4,0,5.,24.0,1.,24.0,0.,24.0,0.,24.0
1979-07-13 00:32:10.660 ,3,1,3.,24.0,1.,24.0,0.,24.0,0.,24.0
1979-07-13 00:32:34.660 ,3,0,6.,24.0,1.,24.0,0.,24.0,0.,24.0
1979-07-13 00:32:58.660 ,2,1,7.,24.0,0.,24.0,0.,24.0,0.,24.0
1979-07-13 00:33:22.660 ,2,0,3.,24.0,0.,24.0,0.,24.0,0.,24.0
1979-07-13 00:33:46.660 ,1,1,2.,24.0,0.,24.0,0.,24.0,0.,24.0
1979-07-13 00:34:10.660 ,1,0,2.,24.0,0.,24.0,0.,24.0,0.,24.0
1979-07-13 00:34:34.660 ,0,1,4.,24.0,0.,24.0,0.,24.0,0.,24.0
1979-07-13 00:34:58.660 ,0,0,3.,24.0,1.,24.0,0.,24.0,0.,24.0
1979-07-13 00:35:22.660 ,0,1,1.,24.0,2.,24.0,0.,24.0,0.,24.0
1979-07-13 00:35:46.660 ,0,0,3.,24.0,1.,24.0,0.,24.0,0.,24.0
1979-07-13 00:36:10.660 ,1,1,2.,24.0,2.,24.0,0.,24.0,0.,24.0
1979-07-13 00:36:34.660 ,1,0,2.,24.0,0.,24.0,0.,24.0,0.,24.0
1979-07-13 00:36:58.660 ,2,1,2.,24.0,1.,24.0,0.,24.0,0.,24.0
1979-07-13 00:37:22.660 ,2,0,0.,24.0,2.,24.0,0.,24.0,0.,24.0
1979-07-13 00:37:46.660 ,3,1,4.,24.0,0.,24.0,0.,24.0,0.,24.0
1979-07-13 00:38:10.660 ,3,0,6.,24.0,0.,24.0,0.,24.0,0.,24.0
1979-07-13 00:38:34.660 ,4,1,2.,24.0,1.,24.0,0.,24.0,0.,24.0
1979-07-13 00:38:58.660 ,4,0,4.,24.0,0.,24.0,0.,24.0,0.,24.0
1979-07-13 00:39:22.660 ,5,1,4.,24.0,1.,24.0,0.,24.0,0.,24.0
1979-07-13 00:39:46.660 ,5,0,7.,24.0,3.,24.0,0.,24.0,0.,24.0
1979-07-13 00:40:10.660 ,6,1,4.,24.0,0.,24.0,0.,24.0,0.,24.0
1979-07-13 00:40:34.660 ,6,0,2.,24.0,0.,24.0,0.,24.0,0.,24.0
1979-07-13 00:40:58.660 ,7,1,8.,24.0,0.,24.0,0.,24.0,0.,24.0
1979-07-13 00:41:22.660 ,7,0,27.,24.0,0.,24.0,0.,24.0,0.,24.0
1979-07-13 00:41:46.660 ,7,1,37.,24.0,1.,24.0,0.,24.0,0.,24.0
1979-07-13 00:42:10.660 ,7,0,31.,24.0,0.,24.0,0.,24.0,0.,24.0
1979-07-13 00:42:34.660 ,6,1,23.,24.0,0.,24.0,0.,24.0,0.,24.0
1979-07-13 00:42:58.660 ,6,0,4.,24.0,0.,24.0,0.,24.0,0.,24.0
1979-07-13 00:43:22.660 ,5,1,3.,24.0,1.,24.0,0.,24.0,0.,24.0
1979-07-13 00:43:46.660 ,5,0,7.,24.0,0.,24.0,0.,24.0,0.,24.0
1979-07-13 00:44:10.660 ,4,1,4.,24.0,0.,24.0,0.,24.0,0.,24.0
1979-07-13 00:44:34.660 ,4,0,2.,24.0,1.,24.0,0.,24.0,0.,24.0
1979-07-13 00:44:58.660 ,3,1,2.,24.0,0.,24.0,0.,24.0,0.,24.0
1979-07-13 00:45:22.660 ,3,0,4.,24.0,0.,24.0,0.,24.0,0.,24.0
1979-07-13 00:45:46.660 ,2,1,5.,24.0,0.,24.0,0.,24.0,0.,24.0
1979-07-13 00:46:10.660 ,2,0,0.,24.0,0.,24.0,0.,24.0,0.,24.0
1979-07-13 00:46:34.660 ,1,1,3.,24.0,0.,24.0,0.,24.0,0.,24.0
1979-07-13 00:46:58.660 ,1,0,1.,24.0,1.,24.0,0.,24.0,0.,24.0
1979-07-13 00:47:22.660 ,0,1,3.,24.0,1.,24.0,0.,24.0,0.,24.0
1979-07-13 00:47:46.660 ,0,0,2.,24.0,2.,24.0,0.,24.0,0.,24.0
1979-07-13 00:48:10.660 ,0,1,4.,24.0,2.,24.0,0.,24.0,0.,24.0
1979-07-13 00:48:34.660 ,0,0,4.,24.0,0.,24.0,0.,24.0,0.,24.0
1979-07-13 00:48:58.660 ,1,1,2.,24.0,1.,24.0,0.,24.0,0.,24.0
1979-07-13 00:49:22.660 ,1,0,3.,24.0,2.,24.0,0.,24.0,0.,24.0
1979-07-13 00:49:46.660 ,2,1,4.,24.0,1.,24.0,0.,24.0,0.,24.0
1979-07-13 00:50:10.660 ,2,0,2.,24.0,1.,24.0,0.,24.0,0.,24.0
1979-07-13 00:50:34.660 ,3,1,3.,24.0,1.,24.0,0.,24.0,0.,24.0
1979-07-13 00:50:58.660 ,3,0,4.,24.0,0.,24.0,0.,24.0,0.,24.0
1979-07-13 00:51:22.660 ,4,1,3.,24.0,1.,24.0,0.,24.0,0.,24.0
1979-07-13 00:51:46.660 ,4,0,4.,24.0,2.,24.0,0.,24.0,0.,24.0
1979-07-13 00:52:10.660 ,5,1,3.,24.0,1.,24.0,0.,24.0,0.,24.0
1979-07-13 00:52:34.660 ,5,0,7.,24.0,0.,24.0,0.,24.0,0.,24.0
1979-07-13 00:52:58.660 ,6,1,6.,24.0,1.,24.0,0.,24.0,0.,24.0
1979-07-13 00:53:22.660 ,6,0,2.,24.0,2.,24.0,0.,24.0,0.,24.0
1979-07-13 00:53:46.660 ,7,1,14.,24.0,0.,24.0,0.,24.0,0.,24.0
1979-07-13 00:54:10.660 ,7,0,32.,24.0,0.,24.0,0.,24.0,0.,24.0
1979-07-13 00:54:34.660 ,7,1,28.,24.0,0.,24.0,0.,24.0,0.,24.0
1979-07-13 00:54:58.660 ,7,0,31.,24.0,0.,24.0,0.,24.0,0.,24.0
1979-07-13 00:55:22.660 ,6,1,25.,24.0,0.,24.0,0.,24.0,0.,24.0
1979-07-13 00:55:46.660 ,6,0,3.,24.0,2.,24.0,0.,24.0,0.,24.0
1979-07-13 00:56:10.660 ,5,1,1.,24.0,0.,24.0,0.,24.0,0.,24.0
1979-07-13 00:56:34.660 ,5,0,1.,24.0,1.,24.0,0.,24.0,0.,24.0
1979-07-13 00:56:58.660 ,4,1,6.,24.0,0.,24.0,0.,24.0,0.,24.0
1979-07-13 00:57:22.660 ,4,0,3.,24.0,0.,24.0,0.,24.0,0.,24.0
1979-07-13 00:57:46.660 ,3,1,3.,24.0,0.,24.0,0.,24.0,0.,24.0
1979-07-13 00:58:10.660 ,3,0,5.,24.0,1.,24.0,0.,24.0,0.,24.0
1979-07-13 00:58:34.660 ,2,1,1.,24.0,0.,24.0,0.,24.0,0.,24.0
1979-07-13 00:58:58.660 ,2,0,1.,24.0,0.,24.0,0.,24.0,0.,24.0
1979-07-13 00:59:22.660 ,1,1,3.,24.0,0.,24.0,0.,24.0,0.,24.0
1979-07-13 00:59:46.660 ,1,0,5.,24.0,0.,24.0,0.,24.0,0.,24.0
1979-07-13 01:00:10.650 ,0,1,0.,24.0,0.,24.0,0.,24.0,0.,24.0
1979-07-13 01:00:34.660 ,0,0,2.,24.0,1.,24.0,0.,24.0,0.,24.0
1979-07-13 01:00:58.660 ,0,1,2.,24.0,2.,24.0,0.,24.0,0.,24.0
1979-07-13 01:01:22.660 ,0,0,5.,24.0,0.,24.0,0.,24.0,0.,24.0
1979-07-13 01:01:46.660 ,1,1,4.,24.0,0.,24.0,0.,24.0,0.,24.0
1979-07-13 01:02:10.650 ,1,0,4.,24.0,0.,24.0,0.,24.0,0.,24.0
1979-07-13 01:02:34.650 ,2,1,3.,24.0,2.,24.0,0.,24.0,0.,24.0
1979-07-13 01:02:58.650 ,2,0,2.,24.0,0.,24.0,0.,24.0,0.,24.0
1979-07-13 01:03:22.650 ,3,1,2.,24.0,0.,24.0,0.,24.0,0.,24.0
1979-07-13 01:03:46.650 ,3,0,2.,24.0,1.,24.0,0.,24.0,0.,24.0
1979-07-13 01:04:10.650 ,4,1,5.,24.0,2.,24.0,0.,24.0,0.,24.0
1979-07-13 01:04:34.660 ,4,0,1.,24.0,1.,24.0,0.,24.0,0.,24.0
1979-07-13 01:04:58.660 ,5,1,4.,24.0,0.,24.0,0.,24.0,0.,24.0
1979-07-13 01:05:22.660 ,5,0,2.,24.0,0.,24.0,0.,24.0,0.,24.0
1979-07-13 01:05:46.660 ,6,1,4.,24.0,0.,24.0,0.,24.0,0.,24.0
1979-07-13 01:06:10.660 ,6,0,4.,24.0,0.,24.0,0.,24.0,0.,24.0
1979-07-13 01:06:34.660 ,7,0,9.,24.0,1.,24.0,0.,24.0,0.,24.0
1979-07-13 01:06:58.660 ,7,0,29.,24.0,0.,24.0,0.,24.0,0.,24.0
1979-07-13 01:07:22.660 ,5,1,21.,24.0,1.,24.0,0.,24.0,0.,24.0
1979-07-13 01:07:46.660 ,1,1,4.,24.0,1.,24.0,0.,24.0,0.,24.0
1979-07-13 01:08:10.660 ,2,1,1.,24.0,1.,24.0,0.,24.0,0.,24.0
1979-07-13 01:08:34.660 ,6,1,5.,24.0,1.,24.0,0.,24.0,0.,24.0
1979-07-13 01:08:58.650 ,5,1,26.,24.0,1.,24.0,0.,24.0,0.,24.0
1979-07-13 01:09:22.650 ,1,1,4.,24.0,1.,24.0,0.,24.0,0.,24.0
1979-07-13 01:09:46.650 ,2,1,4.,24.0,1.,24.0,0.,24.0,0.,24.0
1979-07-13 01:10:10.650 ,6,1,1.,24.0,0.,24.0,0.,24.0,0.,24.0
1979-07-13 01:10:34.650 ,5,1,15.,24.0,0.,24.0,0.,24.0,0.,24.0
1979-07-13 01:10:58.650 ,1,1,1.,24.0,0.,24.0,0.,24.0,0.,24.0
1979-07-13 01:11:22.650 ,2,1,5.,24.0,0.,24.0,0.,24.0,0.,24.0
1979-07-13 01:11:46.650 ,6,1,4.,24.0,0.,24.0,0.,24.0,0.,24.0
1979-07-13 01:12:10.650 ,5,1,16.,24.0,1.,24.0,0.,24.0,0.,24.0
1979-07-13 01:12:34.650 ,1,1,2.,24.0,2.,24.0,0.,24.0,0.,24.0
1979-07-13 01:12:58.650 ,2,1,1.,24.0,1.,24.0,0.,24.0,0.,24.0
1979-07-13 01:13:22.650 ,6,1,3.,24.0,2.,24.0,0.,24.0,0.,24.0
1979-07-13 01:13:46.650 ,5,1,11.,24.0,0.,24.0,0.,24.0,0.,24.0
1979-07-13 01:14:10.650 ,1,1,2.,24.0,0.,24.0,0.,24.0,0.,24.0
1979-07-13 01:14:34.650 ,2,1,2.,24.0,0.,24.0,0.,24.0,0.,24.0
1979-07-13 01:14:58.650 ,6,1,2.,24.0,1.,24.0,0.,24.0,0.,24.0
1979-07-13 01:15:22.650 ,5,1,20.,24.0,1.,24.0,0.,24.0,0.,24.0
1979-07-13 01:15:46.650 ,1,1,1.,24.0,1.,24.0,0.,24.0,0.,24.0
1979-07-13 01:16:10.650 ,2,1,2.,24.0,2.,24.0,0.,24.0,0.,24.0
1979-07-13 01:16:34.650 ,6,1,3.,24.0,0.,24.0,0.,24.0,0.,24.0
1979-07-13 01:16:58.650 ,5,1,14.,24.0,0.,24.0,0.,24.0,0.,24.0
1979-07-13 01:17:22.660 ,1,1,7.,24.0,0.,24.0,0.,24.0,0.,24.0
1979-07-13 01:17:46.660 ,0,0,6.,24.0,0.,24.0,0.,24.0,0.,24.0
1979-07-13 01:18:10.660 ,0,0,4.,24.0,0.,24.0,0.,24.0,0.,24.0
1979-07-13 01:18:34.650 ,5,1,21.,24.0,0.,24.0,0.,24.0,0.,24.0
1979-07-13 01:18:58.650 ,5,0,3.,24.0,2.,24.0,0.,24.0,0.,24.0
1979-07-13 01:19:22.650 ,4,1,6.,24.0,1.,24.0,0.,24.0,0.,24.0
1979-07-13 01:19:46.650 ,4,0,5.,24.0,2.,24.0,0.,24.0,0.,24.0
1979-07-13 01:20:10.650 ,3,1,3.,24.0,0.,24.0,0.,24.0,0.,24.0
1979-07-13 01:20:34.650 ,3,0,3.,24.0,1.,24.0,0.,24.0,0.,24.0
1979-07-13 01:20:58.650 ,2,1,0.,24.0,0.,24.0,0.,24.0,0.,24.0
1979-07-13 01:21:22.650 ,2,0,4.,24.0,1.,24.0,0.,24.0,0.,24.0
1979-07-13 01:21:46.650 ,1,1,6.,24.0,2.,24.0,0.,24.0,0.,24.0
1979-07-13 01:22:10.650 ,1,0,3.,24.0,0.,24.0,0.,24.0,0.,24.0
1979-07-13 01:22:34.650 ,0,1,3.,24.0,0.,24.0,0.,24.0,0.,24.0
1979-07-13 01:22:58.650 ,0,0,7.,24.0,0.,24.0,0.,24.0,0.,24.0
1979-07-13 01:23:22.650 ,0,1,3.,24.0,0.,24.0,0.,24.0,0.,24.0
1979-07-13 01:23:46.650 ,0,0,5.,24.0,0.,24.0,0.,24.0,0.,24.0
1979-07-13 01:24:10.650 ,1,1,2.,24.0,0.,24.0,0.,24.0,0.,24.0
1979-07-13 01:24:34.650 ,1,0,3.,24.0,0.,24.0,0.,24.0,0.,24.0
1979-07-13 01:24:58.650 ,2,1,3.,24.0,0.,24.0,0.,24.0,0.,24.0
1979-07-13 01:25:22.650 ,2,0,3.,24.0,0.,24.0,0.,24.0,0.,24.0
1979-07-13 01:25:46.650 ,3,1,5.,24.0,0.,24.0,0.,24.0,0.,24.0
1979-07-13 01:26:10.650 ,3,0,4.,24.0,2.,24.0,0.,24.0,0.,24.0
1979-07-13 01:26:34.650 ,4,1,4.,24.0,0.,24.0,0.,24.0,0.,24.0
1979-07-13 01:26:58.650 ,4,0,0.,24.0,0.,24.0,0.,24.0,0.,24.0
1979-07-13 01:27:22.650 ,5,1,5.,24.0,0.,24.0,0.,24.0,0.,24.0
1979-07-13 01:27:46.650 ,5,0,2.,24.0,1.,24.0,0.,24.0,0.,24.0
1979-07-13 01:28:10.650 ,6,1,2.,24.0,2.,24.0,0.,24.0,0.,24.0
1979-07-13 01:28:34.650 ,6,0,2.,24.0,0.,24.0,0.,24.0,0.,24.0
1979-07-13 01:28:58.650 ,7,1,10.,24.0,1.,24.0,0.,24.0,0.,24.0
1979-07-13 01:29:22.650 ,7,0,32.,24.0,0.,24.0,0.,24.0,0.,24.0
1979-07-13 01:29:46.650 ,7,1,27.,24.0,0.,24.0,0.,24.0,0.,24.0
1979-07-13 01:30:10.650 ,7,0,31.,24.0,0.,24.0,0.,24.0,0.,24.0
1979-07-13 01:30:34.650 ,6,1,26.,24.0,0.,24.0,0.,24.0,0.,24.0
1979-07-13 01:30:58.650 ,6,0,2.,24.0,0.,24.0,0.,24.0,0.,24.0
1979-07-13 01:31:22.650 ,5,1,4.,24.0,0.,24.0,0.,24.0,0.,24.0
1979-07-13 01:31:46.650 ,5,0,6.,24.0,0.,24.0,0.,24.0,0.,24.0
1979-07-13 01:32:10.650 ,4,1,1.,24.0,1.,24.0,0.,24.0,0.,24.0
1979-07-13 01:32:34.650 ,4,0,6.,24.0,0.,24.0,0.,24.0,0.,24.0
1979-07-13 01:32:58.650 ,3,1,7.,24.0,1.,24.0,0.,24.0,0.,24.0
1979-07-13 01:33:22.650 ,3,0,4.,24.0,1.,24.0,0.,24.0,0.,24.0
1979-07-13 01:33:46.650 ,2,1,0.,24.0,0.,24.0,0.,24.0,0.,24.0
1979-07-13 01:34:10.650 ,2,0,2.,24.0,0.,24.0,0.,24.0,0.,24.0
1979-07-13 01:34:34.650 ,1,1,4.,24.0,1.,24.0,0.,24.0,0.,24.0
1979-07-13 01:34:58.650 ,1,0,3.,24.0,1.,24.0,0.,24.0,0.,24.0
1979-07-13 01:35:22.650 ,0,1,2.,24.0,1.,24.0,0.,24.0,0.,24.0
1979-07-13 01:35:46.650 ,0,0,1.,24.0,0.,24.0,0.,24.0,0.,24.0
1979-07-13 01:36:10.650 ,0,1,2.,24.0,0.,24.0,0.,24.0,0.,24.0
1979-07-13 01:36:34.650 ,0,0,5.,24.0,1.,24.0,0.,24.0,0.,24.0
1979-07-13 01:36:58.650 ,1,1,2.,24.0,0.,24.0,0.,24.0,0.,24.0
1979-07-13 01:37:22.650 ,1,0,1.,24.0,1.,24.0,0.,24.0,0.,24.0
1979-07-13 01:37:46.650 ,2,1,1.,24.0,0.,24.0,0.,24.0,0.,24.0
1979-07-13 01:38:10.650 ,2,0,3.,24.0,1.,24.0,0.,24.0,0.,24.0
1979-07-13 01:38:34.650 ,3,1,3.,24.0,0.,24.0,0.,24.0,0.,24.0
1979-07-13 01:38:58.650 ,3,0,9.,24.0,1.,24.0,0.,24.0,0.,24.0
1979-07-13 01:39:22.650 ,4,1,1.,24.0,2.,24.0,0.,24.0,0.,24.0
1979-07-13 01:39:46.650 ,4,0,9.,24.0,1.,24.0,0.,24.0,0.,24.0
1979-07-13 01:40:10.650 ,5,1,5.,24.0,0.,24.0,0.,24.0,0.,24.0
1979-07-13 01:40:34.650 ,5,0,3.,24.0,1.,24.0,0.,24.0,0.,24.0
1979-07-13 01:40:58.650 ,6,1,6.,24.0,0.,24.0,0.,24.0,0.,24.0
1979-07-13 01:41:22.650 ,6,0,6.,24.0,0.,24.0,0.,24.0,0.,24.0
1979-07-13 01:41:46.650 ,7,1,10.,24.0,1.,24.0,0.,24.0,0.,24.0
1979-07-13 01:42:10.650 ,7,0,22.,24.0,0.,24.0,0.,24.0,0.,24.0
1979-07-13 01:42:34.650 ,7,1,33.,24.0,0.,24.0,0.,24.0,0.,24.0
1979-07-13 01:42:58.650 ,7,0,34.,24.0,0.,24.0,0.,24.0,0.,24.0
1979-07-13 01:43:22.650 ,6,1,23.,24.0,0.,24.0,0.,24.0,0.,24.0
1979-07-13 01:43:46.650 ,6,0,5.,24.0,0.,24.0,0.,24.0,0.,24.0
1979-07-13 01:44:10.650 ,5,1,7.,24.0,1.,24.0,0.,24.0,0.,24.0
1979-07-13 01:44:34.650 ,5,0,4.,24.0,1.,24.0,0.,24.0,0.,24.0
1979-07-13 01:44:58.650 ,4,1,4.,24.0,2.,24.0,0.,24.0,0.,24.0
1979-07-13 01:45:22.650 ,4,0,4.,24.0,1.,24.0,0.,24.0,0.,24.0
1979-07-13 01:45:46.650 ,3,1,3.,24.0,2.,24.0,0.,24.0,0.,24.0
1979-07-13 01:46:10.650 ,3,0,3.,24.0,2.,24.0,0.,24.0,0.,24.0
1979-07-13 01:46:34.650 ,2,1,0.,24.0,1.,24.0,0.,24.0,0.,24.0
1979-07-13 01:46:58.650 ,2,0,1.,24.0,1.,24.0,0.,24.0,0.,24.0
1979-07-13 01:47:22.650 ,1,1,1.,24.0,1.,24.0,0.,24.0,0.,24.0
1979-07-13 01:47:46.650 ,1,0,5.,24.0,0.,24.0,0.,24.0,0.,24.0
1979-07-13 01:48:10.650 ,0,1,1.,24.0,0.,24.0,0.,24.0,0.,24.0
1979-07-13 01:48:34.650 ,0,0,1.,24.0,1.,24.0,0.,24.0,0.,24.0
1979-07-13 01:48:58.650 ,0,1,2.,24.0,2.,24.0,0.,24.0,0.,24.0
1979-07-13 01:49:22.650 ,0,0,1.,24.0,1.,24.0,0.,24.0,0.,24.0
1979-07-13 01:49:46.650 ,1,1,1.,24.0,0.,24.0,0.,24.0,0.,24.0
1979-07-13 01:50:10.650 ,1,0,4.,24.0,1.,24.0,0.,24.0,0.,24.0
1979-07-13 01:50:34.650 ,2,1,2.,24.0,0.,24.0,0.,24.0,0.,24.0
1979-07-13 01:50:58.650 ,2,0,2.,24.0,0.,24.0,0.,24.0,0.,24.0
1979-07-13 01:51:22.650 ,3,1,5.,24.0,0.,24.0,0.,24.0,0.,24.0
1979-07-13 01:51:46.650 ,3,0,4.,24.0,1.,24.0,0.,24.0,0.,24.0
1979-07-13 01:52:10.650 ,4,1,6.,24.0,3.,24.0,0.,24.0,0.,24.0
1979-07-13 01:52:34.650 ,4,0,4.,24.0,1.,24.0,0.,24.0,0.,24.0
1979-07-13 01:52:58.650 ,5,1,9.,24.0,0.,24.0,0.,24.0,0.,24.0
1979-07-13 01:53:22.650 ,5,0,6.,24.0,1.,24.0,0.,24.0,0.,24.0
1979-07-13 01:53:46.650 ,6,1,7.,24.0,2.,24.0,0.,24.0,0.,24.0
1979-07-13 01:54:10.650 ,6,0,9.,24.0,0.,24.0,0.,24.0,0.,24.0
1979-07-13 01:54:34.650 ,7,0,10.,24.0,0.,24.0,0.,24.0,0.,24.0
1979-07-13 01:54:58.650 ,7,0,26.,24.0,0.,24.0,0.,24.0,0.,24.0
1979-07-13 01:55:22.650 ,5,1,17.,24.0,1.,24.0,0.,24.0,0.,24.0
1979-07-13 01:55:46.650 ,1,1,4.,24.0,0.,24.0,0.,24.0,0.,24.0
1979-07-13 01:56:10.650 ,2,1,2.,24.0,0.,24.0,0.,24.0,0.,24.0
1979-07-13 01:56:34.650 ,6,1,3.,24.0,2.,24.0,0.,24.0,0.,24.0
1979-07-13 01:56:58.650 ,5,1,17.,24.0,0.,24.0,0.,24.0,0.,24.0
1979-07-13 01:57:22.650 ,1,1,4.,24.0,2.,24.0,0.,24.0,0.,24.0
1979-07-13 01:57:46.650 ,2,1,2.,24.0,0.,24.0,0.,24.0,0.,24.0
1979-07-13 01:58:10.650 ,6,1,5.,24.0,2.,24.0,0.,24.0,0.,24.0
1979-07-13 01:58:34.650 ,5,1,13.,24.0,0.,24.0,0.,24.0,0.,24.0
1979-07-13 01:58:58.650 ,1,1,3.,24.0,1.,24.0,0.,24.0,0.,24.0
1979-07-13 01:59:22.650 ,2,1,2.,24.0,1.,24.0,0.,24.0,0.,24.0
1979-07-13 01:59:46.650 ,6,1,4.,24.0,0.,24.0,0.,24.0,0.,24.0
1979-07-13 02:00:10.650 ,5,1,24.,24.0,0.,24.0,0.,24.0,0.,24.0
1979-07-13 02:00:34.650 ,1,1,2.,24.0,1.,24.0,0.,24.0,0.,24.0
1979-07-13 02:00:58.650 ,2,1,3.,24.0,0.,24.0,0.,24.0,0.,24.0
1979-07-13 02:01:22.650 ,6,1,2.,24.0,1.,24.0,0.,24.0,0.,24.0
1979-07-13 02:01:46.650 ,5,1,15.,24.0,0.,24.0,0.,24.0,0.,24.0
1979-07-13 02:02:10.650 ,1,1,6.,24.0,1.,24.0,0.,24.0,0.,24.0
1979-07-13 02:02:34.650 ,2,1,5.,24.0,0.,24.0,0.,24.0,0.,24.0
1979-07-13 02:02:58.650 ,6,1,10.,24.0,0.,24.0,0.,24.0,0.,24.0
1979-07-13 02:03:22.650 ,5,1,19.,24.0,0.,24.0,0.,24.0,0.,24.0
1979-07-13 02:03:46.650 ,1,1,5.,24.0,3.,24.0,0.,24.0,0.,24.0
1979-07-13 02:04:10.650 ,2,1,4.,24.0,0.,24.0,0.,24.0,0.,24.0
1979-07-13 02:04:34.650 ,6,1,6.,24.0,1.,24.0,0.,24.0,0.,24.0
1979-07-13 02:04:58.650 ,5,1,18.,24.0,0.,24.0,0.,24.0,0.,24.0
1979-07-13 02:05:22.650 ,1,1,5.,24.0,0.,24.0,0.,24.0,0.,24.0
1979-07-13 02:05:46.650 ,0,0,6.,24.0,1.,24.0,0.,24.0,0.,24.0
1979-07-13 02:06:10.650 ,0,0,5.,24.0,1.,24.0,0.,24.0,0.,24.0
1979-07-13 02:06:34.650 ,5,1,21.,24.0,2.,24.0,0.,24.0,0.,24.0
1979-07-13 02:06:58.650 ,5,0,5.,24.0,0.,24.0,0.,24.0,0.,24.0
1979-07-13 02:07:22.650 ,4,1,2.,24.0,2.,24.0,0.,24.0,0.,24.0
1979-07-13 02:07:46.650 ,4,0,4.,24.0,0.,24.0,0.,24.0,0.,24.0
1979-07-13 02:08:10.650 ,3,1,5.,24.0,0.,24.0,0.,24.0,0.,24.0
1979-07-13 02:08:34.650 ,0,0,1.,24.0,1.,24.0,0.,24.0,0.,24.0
1979-07-13 02:09:05.250 ,0,0,3.,24.0,1.,24.0,0.,24.0,0.,24.0
1979-07-13 02:09:22.650 ,0,0,2.,24.0,2.,24.0,0.,24.0,0.,24.0
1979-07-13 02:09:46.650 ,1,1,4.,24.0,0.,24.0,0.,24.0,0.,24.0
1979-07-13 02:10:10.650 ,1,0,1.,24.0,4.,24.0,0.,24.0,0.,24.0
1979-07-13 02:10:34.650 ,0,1,2.,24.0,0.,24.0,0.,24.0,0.,24.0
1979-07-13 02:10:58.650 ,0,0,4.,24.0,1.,24.0,0.,24.0,0.,24.0
1979-07-13 02:11:22.650 ,0,1,3.,24.0,0.,24.0,0.,24.0,0.,24.0
1979-07-13 02:11:46.650 ,0,0,0.,24.0,1.,24.0,0.,24.0,0.,24.0
1979-07-13 02:12:10.650 ,1,1,2.,24.0,0.,24.0,0.,24.0,0.,24.0
1979-07-13 02:12:34.650 ,1,0,3.,24.0,0.,24.0,0.,24.0,0.,24.0
1979-07-13 02:12:58.650 ,2,1,4.,24.0,0.,24.0,0.,24.0,0.,24.0
1979-07-13 02:13:22.650 ,2,0,7.,24.0,0.,24.0,0.,24.0,0.,24.0
1979-07-13 02:13:46.650 ,3,1,5.,24.0,0.,24.0,0.,24.0,0.,24.0
1979-07-13 02:14:10.650 ,3,0,8.,24.0,1.,24.0,0.,24.0,0.,24.0
1979-07-13 02:14:34.650 ,4,1,4.,24.0,3.,24.0,0.,24.0,0.,24.0
1979-07-13 02:14:58.650 ,4,0,3.,24.0,2.,24.0,0.,24.0,0.,24.0
1979-07-13 02:15:22.650 ,5,1,5.,24.0,0.,24.0,0.,24.0,0.,24.0
1979-07-13 02:15:46.650 ,5,0,6.,24.0,0.,24.0,0.,24.0,0.,24.0
1979-07-13 02:16:10.650 ,6,1,5.,24.0,1.,24.0,0.,24.0,0.,24.0
1979-07-13 02:16:34.650 ,6,0,4.,24.0,2.,24.0,0.,24.0,0.,24.0
1979-07-13 02:16:58.650 ,7,1,15.,24.0,1.,24.0,0.,24.0,0.,24.0
1979-07-13 02:17:22.650 ,7,0,40.,24.0,0.,24.0,0.,24.0,0.,24.0
1979-07-13 02:17:46.650 ,7,1,32.,24.0,0.,24.0,0.,24.0,0.,24.0
1979-07-13 02:18:10.650 ,7,0,23.,24.0,0.,24.0,0.,24.0,0.,24.0
1979-07-13 02:18:34.650 ,6,1,32.,24.0,0.,24.0,0.,24.0,0.,24.0
1979-07-13 02:18:58.650 ,6,0,3.,24.0,0.,24.0,0.,24.0,0.,24.0
1979-07-13 02:19:22.650 ,5,1,4.,24.0,0.,24.0,0.,24.0,0.,24.0
1979-07-13 02:19:46.650 ,5,0,6.,24.0,1.,24.0,0.,24.0,0.,24.0
1979-07-13 02:20:10.650 ,4,1,2.,24.0,0.,24.0,0.,24.0,0.,24.0
1979-07-13 02:20:34.650 ,4,0,1.,24.0,0.,24.0,0.,24.0,0.,24.0
1979-07-13 02:20:58.650 ,3,1,6.,24.0,2.,24.0,0.,24.0,0.,24.0
1979-07-13 02:21:22.650 ,3,0,5.,24.0,1.,24.0,0.,24.0,0.,24.0
1979-07-13 02:21:46.650 ,2,1,3.,24.0,0.,24.0,0.,24.0,0.,24.0
1979-07-13 02:22:10.650 ,2,0,3.,24.0,1.,24.0,0.,24.0,0.,24.0
1979-07-13 02:22:34.650 ,1,1,2.,24.0,0.,24.0,0.,24.0,0.,24.0
1979-07-13 02:22:58.650 ,0,0,,0,,0,,0,,0
1979-07-13 02:23:02.250 ,0,0,3.,24.0,0.,24.0,0.,24.0,0.,24.0
1979-07-13 02:23:22.650 ,0,1,3.,24.0,0.,24.0,0.,24.0,0.,24.0
1979-07-13 02:23:46.650 ,0,0,0.,24.0,0.,24.0,0.,24.0,0.,24.0
1979-07-13 02:24:10.650 ,0,1,2.,24.0,0.,24.0,0.,24.0,0.,24.0
1979-07-13 02:24:34.650 ,0,0,0.,24.0,0.,24.0,0.,24.0,0.,24.0
1979-07-13 02:24:58.650 ,1,1,2.,24.0,0.,24.0,0.,24.0,0.,24.0
1979-07-13 02:25:22.650 ,1,0,2.,24.0,0.,24.0,0.,24.0,0.,24.0
1979-07-13 02:25:46.650 ,2,1,2.,24.0,2.,24.0,0.,24.0,0.,24.0
1979-07-13 02:26:10.650 ,2,0,0.,24.0,0.,24.0,0.,24.0,0.,24.0
1979-07-13 02:26:34.650 ,3,1,4.,24.0,0.,24.0,0.,24.0,0.,24.0
1979-07-13 02:26:58.650 ,3,0,2.,24.0,0.,24.0,0.,24.0,0.,24.0
1979-07-13 02:27:22.650 ,4,1,3.,24.0,0.,24.0,0.,24.0,0.,24.0
1979-07-13 02:27:46.650 ,4,0,2.,24.0,0.,24.0,0.,24.0,0.,24.0
1979-07-13 02:28:10.650 ,5,1,1.,24.0,1.,24.0,0.,24.0,0.,24.0
1979-07-13 02:28:34.650 ,5,0,6.,24.0,2.,24.0,0.,24.0,0.,24.0
1979-07-13 02:28:58.650 ,6,1,9.,24.0,1.,24.0,0.,24.0,0.,24.0
1979-07-13 02:29:22.650 ,6,0,2.,24.0,0.,24.0,0.,24.0,0.,24.0
1979-07-13 02:29:46.650 ,7,1,13.,24.0,0.,24.0,0.,24.0,0.,24.0
1979-07-13 02:30:10.650 ,7,0,18.,24.0,0.,24.0,0.,24.0,0.,24.0
1979-07-13 02:30:34.650 ,7,1,35.,24.0,0.,24.0,0.,24.0,0.,24.0
1979-07-13 02:30:58.650 ,7,0,34.,24.0,0.,24.0,0.,24.0,0.,24.0
1979-07-13 02:31:22.650 ,6,1,30.,24.0,0.,24.0,0.,24.0,0.,24.0
1979-07-13 02:31:46.650 ,6,0,8.,24.0,3.,24.0,0.,24.0,0.,24.0
1979-07-13 02:32:10.650 ,5,1,12.,24.0,0.,24.0,0.,24.0,0.,24.0
1979-07-13 02:32:34.650 ,5,0,16.,24.0,4.,24.0,0.,24.0,0.,24.0
1979-07-13 02:32:58.650 ,4,1,14.,24.0,2.,24.0,0.,24.0,0.,24.0
1979-07-13 02:33:22.650 ,4,0,19.,24.0,3.,24.0,0.,24.0,0.,24.0
1979-07-13 02:33:46.650 ,3,1,13.,24.0,2.,24.0,0.,24.0,0.,24.0